Year,Month,Day,Hour,Minute,Value (Times are PST for temperature in C)
2006,07,04,09,30,14.20
2006,07,04,09,31,14.20
2006,07,04,09,32,14.20
2006,07,04,09,33,14.20
2006,07,04,09,34,14.30
2006,07,04,09,35,14.30
2006,07,04,09,36,14.30
2006,07,04,09,37,14.40
2006,07,04,09,38,14.40
2006,07,04,09,39,14.50
2006,07,04,09,40,14.60
2006,07,04,09,41,14.60
2006,07,04,09,42,14.50
2006,07,04,09,43,14.50
2006,07,04,09,44,14.50
2006,07,04,09,45,14.30
2006,07,04,09,46,14.20
2006,07,04,09,47,14.00
2006,07,04,09,48,13.90
2006,07,04,09,49,13.90
2006,07,04,09,50,13.90
2006,07,04,09,51,13.90
2006,07,04,09,52,13.90
2006,07,04,09,53,14.00
2006,07,04,09,54,14.10
2006,07,04,09,55,14.10
2006,07,04,09,56,14.10
2006,07,04,09,57,14.00
2006,07,04,09,58,14.00
2006,07,04,09,59,14.10
2006,07,04,10,00,14.20
2006,07,04,10,01,14.10
2006,07,04,10,02,14.10
2006,07,04,10,03,14.10
2006,07,04,10,04,14.00
2006,07,04,10,05,14.00
2006,07,04,10,06,14.00
2006,07,04,10,07,14.00
2006,07,04,10,08,13.90
2006,07,04,10,09,13.90
2006,07,04,10,10,13.90
2006,07,04,10,11,13.90
2006,07,04,10,12,13.90
2006,07,04,10,13,13.90
2006,07,04,10,14,13.90
2006,07,04,10,15,13.90
2006,07,04,10,16,14.00
2006,07,04,10,17,14.00
2006,07,04,10,18,14.00
2006,07,04,10,19,14.10
2006,07,04,10,20,14.10
2006,07,04,10,21,14.20
2006,07,04,10,22,14.10
2006,07,04,10,23,14.20
2006,07,04,10,24,14.20
2006,07,04,10,25,14.20
2006,07,04,10,26,14.20
2006,07,04,10,27,14.20
2006,07,04,10,28,14.20
2006,07,04,10,29,14.10
2006,07,04,10,30,14.10
2006,07,04,10,31,14.00
2006,07,04,10,32,14.00
2006,07,04,10,33,14.00
2006,07,04,10,34,14.00
2006,07,04,10,35,14.00
2006,07,04,10,36,14.00
2006,07,04,10,37,14.10
2006,07,04,10,38,14.10
2006,07,04,10,39,14.10
2006,07,04,10,40,14.10
2006,07,04,10,41,14.10
2006,07,04,10,42,14.20
2006,07,04,10,43,14.20
2006,07,04,10,44,14.10
2006,07,04,10,45,14.00
2006,07,04,10,46,14.00
2006,07,04,10,47,14.00
2006,07,04,10,48,14.00
2006,07,04,10,49,14.00
2006,07,04,10,50,14.00
2006,07,04,10,51,13.90
2006,07,04,10,52,13.90
2006,07,04,10,53,13.80
2006,07,04,10,54,13.90
2006,07,04,10,55,14.00
2006,07,04,10,56,14.00
2006,07,04,10,57,13.90
2006,07,04,10,58,13.90
2006,07,04,10,59,13.90
2006,07,04,11,00,14.00
2006,07,04,11,01,14.10
2006,07,04,11,02,14.10
2006,07,04,11,03,14.20
2006,07,04,11,04,14.30
2006,07,04,11,05,14.40
2006,07,04,11,06,14.50
2006,07,04,11,07,14.60
2006,07,04,11,08,14.70
2006,07,04,11,09,14.90
2006,07,04,11,10,15.00
2006,07,04,11,11,15.10
2006,07,04,11,12,15.20
2006,07,04,11,13,15.30
2006,07,04,11,14,15.30
2006,07,04,11,15,15.40
2006,07,04,11,16,15.60
2006,07,04,11,17,15.80
2006,07,04,11,18,16.00
2006,07,04,11,19,16.10
2006,07,04,11,20,16.30
2006,07,04,11,21,16.30
2006,07,04,11,22,16.40
2006,07,04,11,23,16.60
2006,07,04,11,24,16.60
2006,07,04,11,25,16.60
2006,07,04,11,26,16.70
2006,07,04,11,27,16.80
2006,07,04,11,28,16.90
2006,07,04,11,29,17.00
2006,07,04,11,30,17.00
2006,07,04,11,31,17.20
2006,07,04,11,32,17.30
2006,07,04,11,33,17.40
2006,07,04,11,34,17.50
2006,07,04,11,35,17.50
2006,07,04,11,36,17.50
2006,07,04,11,37,17.40
2006,07,04,11,38,17.40
2006,07,04,11,39,17.50
2006,07,04,11,40,17.70
2006,07,04,11,41,17.80
2006,07,04,11,42,18.00
2006,07,04,11,43,18.20
2006,07,04,11,44,18.30
2006,07,04,11,45,18.40
2006,07,04,11,46,18.50
2006,07,04,11,47,18.50
2006,07,04,11,48,18.70
2006,07,04,11,49,18.70
2006,07,04,11,50,18.50
2006,07,04,11,51,18.20
2006,07,04,11,52,17.90
2006,07,04,11,53,17.70
2006,07,04,11,54,17.40
2006,07,04,11,55,17.10
2006,07,04,11,56,16.90
2006,07,04,11,57,16.80
2006,07,04,11,58,16.80
2006,07,04,11,59,16.70
2006,07,04,12,00,16.50
2006,07,04,12,01,16.40
2006,07,04,12,02,16.20
2006,07,04,12,03,16.20
2006,07,04,12,04,16.10
2006,07,04,12,05,16.10
2006,07,04,12,06,16.10
2006,07,04,12,07,16.30
2006,07,04,12,08,16.30
2006,07,04,12,09,16.30
2006,07,04,12,10,16.40
2006,07,04,12,11,16.40
2006,07,04,12,12,16.30
2006,07,04,12,13,16.30
2006,07,04,12,14,16.30
2006,07,04,12,15,16.40
2006,07,04,12,16,16.40
2006,07,04,12,17,16.40
2006,07,04,12,18,16.40
2006,07,04,12,19,16.40
2006,07,04,12,20,16.20
2006,07,04,12,21,16.20
2006,07,04,12,22,16.20
2006,07,04,12,23,16.20
2006,07,04,12,24,16.30
2006,07,04,12,25,16.40
2006,07,04,12,26,16.40
2006,07,04,12,27,16.40
2006,07,04,12,28,16.50
2006,07,04,12,29,16.60
2006,07,04,12,30,16.60
2006,07,04,12,31,16.60
2006,07,04,12,32,16.60
2006,07,04,12,33,16.70
2006,07,04,12,34,16.70
2006,07,04,12,35,16.60
2006,07,04,12,36,16.60
2006,07,04,12,37,16.60
2006,07,04,12,38,16.60
2006,07,04,12,39,16.60
2006,07,04,12,40,16.70
2006,07,04,12,41,16.70
2006,07,04,12,42,16.70
2006,07,04,12,43,16.70
2006,07,04,12,44,16.60
2006,07,04,12,45,16.40
2006,07,04,12,46,16.40
2006,07,04,12,47,16.60
2006,07,04,12,48,16.70
2006,07,04,12,49,16.70
2006,07,04,12,50,16.70
2006,07,04,12,51,16.80
2006,07,04,12,52,16.80
2006,07,04,12,53,17.00
2006,07,04,12,54,17.10
2006,07,04,12,55,17.00
2006,07,04,12,56,16.90
2006,07,04,12,57,16.90
2006,07,04,12,58,17.00
2006,07,04,12,59,17.00
2006,07,04,13,00,17.20
2006,07,04,13,01,17.30
2006,07,04,13,02,17.40
2006,07,04,13,03,17.50
2006,07,04,13,04,17.40
2006,07,04,13,05,17.30
2006,07,04,13,06,17.30
2006,07,04,13,07,17.30
2006,07,04,13,08,17.30
2006,07,04,13,09,17.40
2006,07,04,13,10,17.40
2006,07,04,13,11,17.50
2006,07,04,13,12,17.60
2006,07,04,13,13,17.60
2006,07,04,13,14,17.60
2006,07,04,13,15,17.60
2006,07,04,13,16,17.70
2006,07,04,13,17,17.90
2006,07,04,13,18,18.10
2006,07,04,13,19,18.20
2006,07,04,13,20,18.30
2006,07,04,13,21,18.20
2006,07,04,13,22,18.20
2006,07,04,13,23,18.20
2006,07,04,13,24,18.20
2006,07,04,13,25,18.20
2006,07,04,13,26,18.20
2006,07,04,13,27,18.20
2006,07,04,13,28,18.10
2006,07,04,13,29,18.00
2006,07,04,13,30,17.90
2006,07,04,13,31,17.90
2006,07,04,13,32,18.10
2006,07,04,13,33,18.20
2006,07,04,13,34,18.30
2006,07,04,13,35,18.20
2006,07,04,13,36,18.10
2006,07,04,13,37,17.90
2006,07,04,13,38,17.50
2006,07,04,13,39,17.20
2006,07,04,13,40,17.10
2006,07,04,13,41,16.90
2006,07,04,13,42,16.80
2006,07,04,13,43,16.90
2006,07,04,13,44,17.00
2006,07,04,13,45,17.00
2006,07,04,13,46,17.20
2006,07,04,13,47,17.30
2006,07,04,13,48,17.40
2006,07,04,13,49,17.40
2006,07,04,13,50,17.40
2006,07,04,13,51,17.50
2006,07,04,13,52,17.60
2006,07,04,13,53,17.70
2006,07,04,13,54,17.80
2006,07,04,13,55,18.00
2006,07,04,13,56,18.20
2006,07,04,13,57,18.20
2006,07,04,13,58,18.20
2006,07,04,13,59,18.10
2006,07,04,14,00,17.90
2006,07,04,14,01,17.90
2006,07,04,14,02,17.90
2006,07,04,14,03,17.90
2006,07,04,14,04,18.10
2006,07,04,14,05,18.20
2006,07,04,14,06,18.20
2006,07,04,14,07,18.20
2006,07,04,14,08,18.20
2006,07,04,14,09,18.10
2006,07,04,14,10,18.10
2006,07,04,14,11,18.20
2006,07,04,14,12,18.40
2006,07,04,14,13,18.40
2006,07,04,14,14,18.30
2006,07,04,14,15,18.10
2006,07,04,14,16,18.00
2006,07,04,14,17,17.90
2006,07,04,14,18,17.90
2006,07,04,14,19,17.90
2006,07,04,14,20,17.90
2006,07,04,14,21,17.90
2006,07,04,14,22,17.90
2006,07,04,14,23,18.00
2006,07,04,14,24,18.10
2006,07,04,14,25,18.20
2006,07,04,14,26,18.20
2006,07,04,14,27,18.30
2006,07,04,14,28,18.30
2006,07,04,14,29,18.50
2006,07,04,14,30,18.60
2006,07,04,14,31,18.70
2006,07,04,14,32,18.80
2006,07,04,14,33,18.80
2006,07,04,14,34,18.90
2006,07,04,14,35,18.90
2006,07,04,14,36,18.90
2006,07,04,14,37,18.90
2006,07,04,14,38,18.90
2006,07,04,14,39,19.00
2006,07,04,14,40,19.20
2006,07,04,14,41,19.30
2006,07,04,14,42,19.40
2006,07,04,14,43,19.50
2006,07,04,14,44,19.60
2006,07,04,14,45,19.60
2006,07,04,14,46,19.70
2006,07,04,14,47,19.70
2006,07,04,14,48,19.70
2006,07,04,14,49,19.70
2006,07,04,14,50,19.90
2006,07,04,14,51,20.00
2006,07,04,14,52,20.10
2006,07,04,14,53,20.10
2006,07,04,14,54,20.10
2006,07,04,14,55,20.20
2006,07,04,14,56,20.20
2006,07,04,14,57,20.30
2006,07,04,14,58,20.40
2006,07,04,14,59,20.50
2006,07,04,15,00,20.60
2006,07,04,15,01,20.70
2006,07,04,15,02,20.70
2006,07,04,15,03,20.60
2006,07,04,15,04,20.60
2006,07,04,15,05,20.60
2006,07,04,15,06,20.50
2006,07,04,15,07,20.60
2006,07,04,15,08,20.70
2006,07,04,15,09,20.80
2006,07,04,15,10,20.80
2006,07,04,15,11,20.80
2006,07,04,15,12,20.80
2006,07,04,15,13,20.90
2006,07,04,15,14,21.00
2006,07,04,15,15,21.00
2006,07,04,15,16,21.00
2006,07,04,15,17,20.90
2006,07,04,15,18,20.80
2006,07,04,15,19,20.60
2006,07,04,15,20,20.60
2006,07,04,15,21,20.50
2006,07,04,15,22,20.40
2006,07,04,15,23,20.50
2006,07,04,15,24,20.50
2006,07,04,15,25,20.40
2006,07,04,15,26,20.30
2006,07,04,15,27,20.20
2006,07,04,15,28,20.30
2006,07,04,15,29,20.30
2006,07,04,15,30,20.30
2006,07,04,15,31,20.40
2006,07,04,15,32,20.30
2006,07,04,15,33,20.30
2006,07,04,15,34,20.20
2006,07,04,15,35,20.20
2006,07,04,15,36,20.20
2006,07,04,15,37,20.20
2006,07,04,15,38,20.20
2006,07,04,15,39,20.20
2006,07,04,15,40,20.20
2006,07,04,15,41,20.20
2006,07,04,15,42,20.10
2006,07,04,15,43,20.00
2006,07,04,15,44,19.90
2006,07,04,15,45,20.00
2006,07,04,15,46,20.10
2006,07,04,15,47,20.20
2006,07,04,15,48,20.30
2006,07,04,15,49,20.40
2006,07,04,15,50,20.50
2006,07,04,15,51,20.70
2006,07,04,15,52,20.90
2006,07,04,15,53,21.00
2006,07,04,15,54,21.10
2006,07,04,15,55,21.10
2006,07,04,15,56,21.10
2006,07,04,15,57,21.10
2006,07,04,15,58,21.10
2006,07,04,15,59,21.10
2006,07,04,16,00,21.10
2006,07,04,16,01,21.00
2006,07,04,16,02,21.00
2006,07,04,16,03,21.00
2006,07,04,16,04,21.00
2006,07,04,16,05,21.00
2006,07,04,16,06,20.90
2006,07,04,16,07,20.90
2006,07,04,16,08,20.80
2006,07,04,16,09,20.80
2006,07,04,16,10,20.80
2006,07,04,16,11,20.80
2006,07,04,16,12,20.80
2006,07,04,16,13,20.90
2006,07,04,16,14,20.80
2006,07,04,16,15,20.70
2006,07,04,16,16,20.80
2006,07,04,16,17,20.80
2006,07,04,16,18,20.80
2006,07,04,16,19,20.90
2006,07,04,16,20,20.90
2006,07,04,16,21,21.00
2006,07,04,16,22,21.00
2006,07,04,16,23,21.20
2006,07,04,16,24,21.30
2006,07,04,16,25,21.30
2006,07,04,16,26,21.30
2006,07,04,16,27,21.30
2006,07,04,16,28,21.30
2006,07,04,16,29,21.10
2006,07,04,16,30,21.00
2006,07,04,16,31,20.90
2006,07,04,16,32,20.90
2006,07,04,16,33,20.90
2006,07,04,16,34,20.80
2006,07,04,16,35,20.70
2006,07,04,16,36,20.60
2006,07,04,16,37,20.60
2006,07,04,16,38,20.50
2006,07,04,16,39,20.50
2006,07,04,16,40,20.50
2006,07,04,16,41,20.50
2006,07,04,16,42,20.60
2006,07,04,16,43,20.70
2006,07,04,16,44,20.80
2006,07,04,16,45,20.90
2006,07,04,16,46,21.00
2006,07,04,16,47,21.00
2006,07,04,16,48,21.20
2006,07,04,16,49,21.30
2006,07,04,16,50,21.40
2006,07,04,16,51,21.40
2006,07,04,16,52,21.30
2006,07,04,16,53,21.30
2006,07,04,16,54,21.30
2006,07,04,16,55,21.30
2006,07,04,16,56,21.30
2006,07,04,16,57,21.20
2006,07,04,16,58,21.00
2006,07,04,16,59,20.90
2006,07,04,17,00,20.80
2006,07,04,17,01,20.90
2006,07,04,17,02,21.00
2006,07,04,17,03,21.00
2006,07,04,17,04,21.20
2006,07,04,17,05,21.30
2006,07,04,17,06,21.40
2006,07,04,17,07,21.50
2006,07,04,17,08,21.60
2006,07,04,17,09,21.60
2006,07,04,17,10,21.60
2006,07,04,17,11,21.60
2006,07,04,17,12,21.60
2006,07,04,17,13,21.60
2006,07,04,17,14,21.60
2006,07,04,17,15,21.50
2006,07,04,17,16,21.30
2006,07,04,17,17,21.20
2006,07,04,17,18,21.20
2006,07,04,17,19,21.20
2006,07,04,17,20,21.10
2006,07,04,17,21,21.10
2006,07,04,17,22,21.10
2006,07,04,17,23,21.20
2006,07,04,17,24,21.10
2006,07,04,17,25,21.10
2006,07,04,17,26,21.00
2006,07,04,17,27,20.90
2006,07,04,17,28,20.80
2006,07,04,17,29,20.70
2006,07,04,17,30,20.50
2006,07,04,17,31,20.40
2006,07,04,17,32,20.40
2006,07,04,17,33,20.50
2006,07,04,17,34,20.60
2006,07,04,17,35,20.60
2006,07,04,17,36,20.70
2006,07,04,17,37,20.80
2006,07,04,17,38,20.90
2006,07,04,17,39,21.00
2006,07,04,17,40,21.10
2006,07,04,17,41,21.20
2006,07,04,17,42,21.30
2006,07,04,17,43,21.30
2006,07,04,17,44,21.40
2006,07,04,17,45,21.60
2006,07,04,17,46,21.70
2006,07,04,17,47,21.80
2006,07,04,17,48,21.80
2006,07,04,17,49,21.80
2006,07,04,17,50,21.90
2006,07,04,17,51,21.90
2006,07,04,17,52,21.90
2006,07,04,17,53,22.00
2006,07,04,17,54,22.00
2006,07,04,17,55,22.00
2006,07,04,17,56,22.10
2006,07,04,17,57,22.20
2006,07,04,17,58,22.20
2006,07,04,17,59,22.30
2006,07,04,18,00,22.30
2006,07,04,18,01,22.40
2006,07,04,18,02,22.40
2006,07,04,18,03,22.40
2006,07,04,18,04,22.20
2006,07,04,18,05,22.00
2006,07,04,18,06,21.90
2006,07,04,18,07,21.60
2006,07,04,18,08,21.40
2006,07,04,18,09,21.30
2006,07,04,18,10,21.20
2006,07,04,18,11,21.10
2006,07,04,18,12,21.10
2006,07,04,18,13,21.10
2006,07,04,18,14,21.10
2006,07,04,18,15,21.00
2006,07,04,18,16,21.00
2006,07,04,18,17,21.10
2006,07,04,18,18,21.20
2006,07,04,18,19,21.10
2006,07,04,18,20,21.00
2006,07,04,18,21,21.00
2006,07,04,18,22,21.00
2006,07,04,18,23,21.10
2006,07,04,18,24,21.10
2006,07,04,18,25,21.10
2006,07,04,18,26,21.10
2006,07,04,18,27,21.10
2006,07,04,18,28,21.10
2006,07,04,18,29,21.20
2006,07,04,18,30,21.20
2006,07,04,18,31,21.30
2006,07,04,18,32,21.30
2006,07,04,18,33,21.30
2006,07,04,18,34,21.30
2006,07,04,18,35,21.30
2006,07,04,18,36,21.30
2006,07,04,18,37,21.30
2006,07,04,18,38,21.20
2006,07,04,18,39,21.10
2006,07,04,18,40,21.00
2006,07,04,18,41,21.00
2006,07,04,18,42,20.90
2006,07,04,18,43,20.90
2006,07,04,18,44,21.00
2006,07,04,18,45,21.00
2006,07,04,18,46,21.00
2006,07,04,18,47,21.10
2006,07,04,18,48,21.10
2006,07,04,18,49,21.20
2006,07,04,18,50,21.20
2006,07,04,18,51,21.20
2006,07,04,18,52,21.00
2006,07,04,18,53,20.90
2006,07,04,18,54,20.80
2006,07,04,18,55,20.70
2006,07,04,18,56,20.60
2006,07,04,18,57,20.50
2006,07,04,18,58,20.40
2006,07,04,18,59,20.30
2006,07,04,19,00,20.20
2006,07,04,19,01,20.00
2006,07,04,19,02,19.90
2006,07,04,19,03,19.90
2006,07,04,19,04,19.90
2006,07,04,19,05,19.80
2006,07,04,19,06,19.70
2006,07,04,19,07,19.50
2006,07,04,19,08,19.40
2006,07,04,19,09,19.30
2006,07,04,19,10,19.30
2006,07,04,19,11,19.30
2006,07,04,19,12,19.40
2006,07,04,19,13,19.50
2006,07,04,19,14,19.60
2006,07,04,19,15,19.70
2006,07,04,19,16,19.70
2006,07,04,19,17,19.90
2006,07,04,19,18,19.90
2006,07,04,19,19,19.90
2006,07,04,19,20,19.90
2006,07,04,19,21,19.90
2006,07,04,19,22,19.90
2006,07,04,19,23,19.90
2006,07,04,19,24,19.90
2006,07,04,19,25,19.90
2006,07,04,19,26,19.90
2006,07,04,19,27,19.80
2006,07,04,19,28,19.80
2006,07,04,19,29,19.80
2006,07,04,19,30,19.90
2006,07,04,19,31,19.90
2006,07,04,19,32,19.90
2006,07,04,19,33,19.90
2006,07,04,19,34,19.90
2006,07,04,19,35,19.90
2006,07,04,19,36,19.90
2006,07,04,19,37,19.90
2006,07,04,19,38,19.90
2006,07,04,19,39,19.80
2006,07,04,19,40,19.70
2006,07,04,19,41,19.70
2006,07,04,19,42,19.60
2006,07,04,19,43,19.50
2006,07,04,19,44,19.50
2006,07,04,19,45,19.50
2006,07,04,19,46,19.40
2006,07,04,19,47,19.50
2006,07,04,19,48,19.50
2006,07,04,19,49,19.40
2006,07,04,19,50,19.30
2006,07,04,19,51,19.10
2006,07,04,19,52,18.80
2006,07,04,19,53,18.60
2006,07,04,19,54,18.40
2006,07,04,19,55,18.20
2006,07,04,19,56,18.10
2006,07,04,19,57,17.90
2006,07,04,19,58,17.90
2006,07,04,19,59,18.00
2006,07,04,20,00,18.10
2006,07,04,20,01,18.20
2006,07,04,20,02,18.40
2006,07,04,20,03,18.60
2006,07,04,20,04,18.70
2006,07,04,20,05,18.80
2006,07,04,20,06,18.90
2006,07,04,20,07,18.90
2006,07,04,20,08,18.90
2006,07,04,20,09,18.90
2006,07,04,20,10,18.90
2006,07,04,20,11,18.90
2006,07,04,20,12,18.90
2006,07,04,20,13,18.90
2006,07,04,20,14,18.90
2006,07,04,20,15,18.90
2006,07,04,20,16,18.90
2006,07,04,20,17,18.90
2006,07,04,20,18,18.80
2006,07,04,20,19,18.70
2006,07,04,20,20,18.70
2006,07,04,20,21,18.60
2006,07,04,20,22,18.40
2006,07,04,20,23,18.30
2006,07,04,20,24,18.20
2006,07,04,20,25,18.20
2006,07,04,20,26,18.10
2006,07,04,20,27,18.10
2006,07,04,20,28,18.20
2006,07,04,20,29,18.10
2006,07,04,20,30,18.00
2006,07,04,20,31,17.90
2006,07,04,20,32,17.80
2006,07,04,20,33,17.80
2006,07,04,20,34,17.70
2006,07,04,20,35,17.60
2006,07,04,20,36,17.50
2006,07,04,20,37,17.50
2006,07,04,20,38,17.40
2006,07,04,20,39,17.30
2006,07,04,20,40,17.30
2006,07,04,20,41,17.30
2006,07,04,20,42,17.30
2006,07,04,20,43,17.20
2006,07,04,20,44,17.10
2006,07,04,20,45,17.10
2006,07,04,20,46,17.10
2006,07,04,20,47,17.10
2006,07,04,20,48,17.00
2006,07,04,20,49,17.00
2006,07,04,20,50,17.00
2006,07,04,20,51,17.00
2006,07,04,20,52,17.00
2006,07,04,20,53,16.90
2006,07,04,20,54,16.90
2006,07,04,20,55,16.80
2006,07,04,20,56,16.80
2006,07,04,20,57,16.80
2006,07,04,20,58,16.80
2006,07,04,20,59,16.80
2006,07,04,21,00,16.70
2006,07,04,21,01,16.70
2006,07,04,21,02,16.70
2006,07,04,21,03,16.70
2006,07,04,21,04,16.70
2006,07,04,21,05,16.70
2006,07,04,21,06,16.70
2006,07,04,21,07,16.70
2006,07,04,21,08,16.70
2006,07,04,21,09,16.70
2006,07,04,21,10,16.70
2006,07,04,21,11,16.70
2006,07,04,21,12,16.70
2006,07,04,21,13,16.70
2006,07,04,21,14,16.70
2006,07,04,21,15,16.60
2006,07,04,21,16,16.60
2006,07,04,21,17,16.50
2006,07,04,21,18,16.40
2006,07,04,21,19,16.40
2006,07,04,21,20,16.40
2006,07,04,21,21,16.40
2006,07,04,21,22,16.40
2006,07,04,21,23,16.40
2006,07,04,21,24,16.40
2006,07,04,21,25,16.40
2006,07,04,21,26,16.40
2006,07,04,21,27,16.40
2006,07,04,21,28,16.40
2006,07,04,21,29,16.40
2006,07,04,21,30,16.40
2006,07,04,21,31,16.40
2006,07,04,21,32,16.40
2006,07,04,21,33,16.30
2006,07,04,21,34,16.30
2006,07,04,21,35,16.20
2006,07,04,21,36,16.10
2006,07,04,21,37,16.10
2006,07,04,21,38,16.00
2006,07,04,21,39,15.90
2006,07,04,21,40,15.90
2006,07,04,21,41,15.80
2006,07,04,21,42,15.80
2006,07,04,21,43,15.70
2006,07,04,21,44,15.70
2006,07,04,21,45,15.60
2006,07,04,21,46,15.50
2006,07,04,21,47,15.50
2006,07,04,21,48,15.40
2006,07,04,21,49,15.40
2006,07,04,21,50,15.40
2006,07,04,21,51,15.30
2006,07,04,21,52,15.30
2006,07,04,21,53,15.40
2006,07,04,21,54,15.40
2006,07,04,21,55,15.50
2006,07,04,21,56,15.50
2006,07,04,21,57,15.50
2006,07,04,21,58,15.50
2006,07,04,21,59,15.60
2006,07,04,22,00,15.70
2006,07,04,22,01,15.70
2006,07,04,22,02,15.70
2006,07,04,22,03,15.70
2006,07,04,22,04,15.80
2006,07,04,22,05,15.80
2006,07,04,22,06,15.80
2006,07,04,22,07,15.80
2006,07,04,22,08,15.80
2006,07,04,22,09,15.90
2006,07,04,22,10,15.90
2006,07,04,22,11,15.90
2006,07,04,22,12,15.80
2006,07,04,22,13,15.80
2006,07,04,22,14,15.80
2006,07,04,22,15,15.80
2006,07,04,22,16,15.70
2006,07,04,22,17,15.70
2006,07,04,22,18,15.60
2006,07,04,22,19,15.60
2006,07,04,22,20,15.50
2006,07,04,22,21,15.50
2006,07,04,22,22,15.40
2006,07,04,22,23,15.40
2006,07,04,22,24,15.40
2006,07,04,22,25,15.30
2006,07,04,22,26,15.30
2006,07,04,22,27,15.20
2006,07,04,22,28,15.20
2006,07,04,22,29,15.20
2006,07,04,22,30,15.20
2006,07,04,22,31,15.10
2006,07,04,22,32,15.10
2006,07,04,22,33,15.10
2006,07,04,22,34,15.10
2006,07,04,22,35,15.10
2006,07,04,22,36,15.10
2006,07,04,22,37,15.10
2006,07,04,22,38,15.10
2006,07,04,22,39,15.10
2006,07,04,22,40,15.10
2006,07,04,22,41,15.10
2006,07,04,22,42,15.10
2006,07,04,22,43,15.10
2006,07,04,22,44,15.10
2006,07,04,22,45,15.10
2006,07,04,22,46,15.10
2006,07,04,22,47,15.10
2006,07,04,22,48,15.10
2006,07,04,22,49,15.10
2006,07,04,22,50,15.10
2006,07,04,22,51,15.10
2006,07,04,22,52,15.00
2006,07,04,22,53,15.00
2006,07,04,22,54,15.00
2006,07,04,22,55,15.00
2006,07,04,22,56,15.00
2006,07,04,22,57,14.90
2006,07,04,22,58,14.90
2006,07,04,22,59,14.80
2006,07,04,23,00,14.80
2006,07,04,23,01,14.70
2006,07,04,23,02,14.70
2006,07,04,23,03,14.70
2006,07,04,23,04,14.60
2006,07,04,23,05,14.60
2006,07,04,23,06,14.50
2006,07,04,23,07,14.50
2006,07,04,23,08,14.50
2006,07,04,23,09,14.50
2006,07,04,23,10,14.50
2006,07,04,23,11,14.50
2006,07,04,23,12,14.50
2006,07,04,23,13,14.50
2006,07,04,23,14,14.50
2006,07,04,23,15,14.50
2006,07,04,23,16,14.50
2006,07,04,23,17,14.50
2006,07,04,23,18,14.50
2006,07,04,23,19,14.50
2006,07,04,23,20,14.40
2006,07,04,23,21,14.50
2006,07,04,23,22,14.50
2006,07,04,23,23,14.50
2006,07,04,23,24,14.50
2006,07,04,23,25,14.50
2006,07,04,23,26,14.50
2006,07,04,23,27,14.50
2006,07,04,23,28,14.50
2006,07,04,23,29,14.50
2006,07,04,23,30,14.50
2006,07,04,23,31,14.50
2006,07,04,23,32,14.50
2006,07,04,23,33,14.40
2006,07,04,23,34,14.50
2006,07,04,23,35,14.50
2006,07,04,23,36,14.50
2006,07,04,23,37,14.50
2006,07,04,23,38,14.50
2006,07,04,23,39,14.50
2006,07,04,23,40,14.40
2006,07,04,23,41,14.40
2006,07,04,23,42,14.30
2006,07,04,23,43,14.20
2006,07,04,23,44,14.20
2006,07,04,23,45,14.20
2006,07,04,23,46,14.20
2006,07,04,23,47,14.20
2006,07,04,23,48,14.20
2006,07,04,23,49,14.10
2006,07,04,23,50,14.10
2006,07,04,23,51,14.00
2006,07,04,23,52,14.00
2006,07,04,23,53,13.90
2006,07,04,23,54,13.90
2006,07,04,23,55,13.90
2006,07,04,23,56,13.90
2006,07,04,23,57,13.90
2006,07,04,23,58,13.80
2006,07,04,23,59,13.80
